15min,AgWx,beryljct,423,12AUG2018:00:00:00,65.3,12.93,67.5,65.7,67.4,68.7,65.7,53,58,49,1.243,49.6,50.4,48.6,4.976,3.0,261,15,5.7,0.00035,0.00052,75.7,77.9,16,0,0,64.0,16.20,0.00,0.00
15min,AgWx,beryljct,423,12AUG2018:00:15:00,65.2,12.93,66.2,68.0,65.9,68.0,65.0,56,59,49,1.147,49.8,51.0,48.0,0.833,3.1,246,74,7.7,0.00033,0.00049,75.5,77.8,16,0,0,63.2,16.20,0.00,0.00
15min,AgWx,beryljct,423,12AUG2018:00:30:00,65.0,12.92,67.5,62.9,67.9,69.0,62.9,50,65,47,1.265,48.7,50.8,47.9,3.639,1.9,61,31,5.0,0.00026,0.00041,75.2,77.7,16,0,0,63.7,16.20,0.00,0.00
15min,AgWx,beryljct,423,12AUG2018:00:45:00,64.2,12.92,62.0,60.2,62.3,64.7,59.9,65,72,57,1.267,50.3,51.2,48.8,4.538,4.0,135,5.9,5.3,0.00030,0.00042,75.0,77.1,16,0,0,60.3,16.20,0.00,0.00
15min,AgWx,beryljct,423,12AUG2018:01:00:00,62.8,12.91,59.2,58.2,59.3,60.6,58.1,73,77,69,1.270,50.7,51.0,50.3,5.349,4.7,141,9.7,6.1,0.00024,0.00032,74.8,77.5,16,0,0,57.9,16.20,0.00,0.00
15min,AgWx,beryljct,423,12AUG2018:01:15:00,61.8,12.92,61.4,61.0,60.9,62.4,57.7,68,79,63,1.227,50.1,51.2,49.5,1.973,5.2,174,20,7.8,0.00032,0.00043,74.6,77.4,16,0,0,59.2,16.20,0.00,0.00
15min,AgWx,beryljct,423,12AUG2018:01:30:00,61.2,12.91,61.1,63.2,60.6,63.2,57.6,68,79,59,1.172,50.1,51.2,48.8,2.784,2.8,317,32,5.1,0.00021,0.00030,74.3,77.3,16,0,0,58.3,16.20,0.00,0.00
15min,AgWx,beryljct,423,12AUG2018:01:45:00,61.3,12.89,65.1,63.4,65.0,66.6,63.4,56,61,51,1.212,48.7,49.9,47.9,2.126,2.9,206,29,4.2,0.00031,0.00046,74.1,77.1,16,0,0,61.3,16.20,0.00,0.00
15min,AgWx,beryljct,423,12AUG2018:02:00:00,61.0,12.9,60.3,62.7,60.3,63.1,58.9,68,73,60,1.168,49.9,50.5,48.7,2.324,1.5,160,23,2.8,0.00013,0.00020,73.9,77.0,16,0,0,58.0,16.20,0.00,0.00
15min,AgWx,beryljct,423,12AUG2018:02:15:00,60.3,12.88,58.3,56.4,59.0,63.2,56.4,72,79,59,1.232,49.9,50.5,48.7,4.231,3.1,159,21,5.7,0.00019,0.00027,73.7,76.4,16,0,0,56.9,16.20,0.00,0.00
15min,AgWx,beryljct,423,12AUG2018:02:30:00,59.3,12.87,56.1,55.8,56.1,56.6,55.4,81,84,79,1.263,50.4,50.8,50.0,0.723,3.1,208,7.9,4.5,0.00012,0.00017,73.5,76.8,16,0,0,54.7,16.20,0.00,0.00
15min,AgWx,beryljct,423,12AUG2018:02:45:00,58.5,12.87,57.3,57.2,56.9,57.5,55.8,78,83,74,1.194,50.0,51.1,49.2,1.074,1.8,330,36,4.4,0.00010,0.00015,73.3,76.2,16,0,0,54.5,16.20,0.00,0.00
15min,AgWx,beryljct,423,12AUG2018:03:00:00,57.9,12.87,57.5,59.2,57.2,59.2,55.5,76,81,69,1.183,49.6,50.1,49.0,0,1.7,44,59,4.6,0.00010,0.00016,73.0,76.1,16,0,0,54.5,16.20,0.00,0.00
15min,AgWx,beryljct,423,12AUG2018:03:15:00,57.4,12.87,56.5,54.5,56.8,59.1,54.3,77,86,69,1.238,49.6,50.3,49.0,2.324,1.1,157,16,4.6,0.00007,0.00011,72.8,76.5,16,0,0,54.5,16.20,0.00,0.00
15min,AgWx,beryljct,423,12AUG2018:03:30:00,56.8,12.87,54.9,54.6,54.7,55.3,54.2,84,86,82,1.216,49.9,50.3,49.6,3.529,2.7,165,8.4,4.5,0.00009,0.00013,72.6,76.3,16,0,0,52.8,16.20,0.00,0.00
15min,AgWx,beryljct,423,12AUG2018:03:45:00,56.3,12.87,54.7,55.1,54.4,55.1,53.7,85,87,82,1.250,49.9,50.6,49.6,0.57,1.5,171,5.4,3.6,0.00006,0.00009,72.4,76.2,16,0,0,52.5,16.20,0.00,0.00
15min,AgWx,beryljct,423,12AUG2018:04:00:00,56.0,12.86,57.2,58.0,56.6,58.1,54.8,78,84,73,1.223,49.8,50.4,49.4,0.723,1.1,175,0.9,2.3,0.00006,0.00010,72.2,76.1,16,0,0,53.7,16.20,0.00,0.00
15min,AgWx,beryljct,423,12AUG2018:04:15:00,56.1,12.86,57.5,57.2,57.4,59.7,56.4,76,79,68,1.224,49.8,50.5,48.8,0.482,1.0,165,17,2.2,0.00007,0.00011,72.0,76.0,16,0,0,55.1,16.20,0.00,0.00
15min,AgWx,beryljct,423,12AUG2018:04:30:00,56.2,12.85,58.3,55.8,58.3,60.2,55.8,72,80,66,1.186,49.4,50.3,48.8,4.801,1.8,151,43,4.8,0.00012,0.00019,71.8,75.8,16,0,0,55.7,16.20,0.00,0.00
15min,AgWx,beryljct,423,12AUG2018:04:45:00,56.0,12.85,54.4,53.2,54.6,55.7,53.2,84,86,79,1.188,49.7,50.3,49.1,0,2.8,172,10,4.7,0.00010,0.00014,71.6,75.7,16,0,0,53.2,16.20,0.00,0.00
15min,AgWx,beryljct,423,12AUG2018:05:00:00,55.5,12.86,53.8,52.8,53.7,54.2,52.8,86,88,84,1.184,49.6,50.1,48.9,4.538,0.9,166,8.1,4.5,0.00003,0.00005,71.4,75.6,16,0,0,51.6,16.21,0.00,0.00
15min,AgWx,beryljct,423,12AUG2018:05:15:00,55.0,12.85,53.1,53.4,52.9,53.4,52.5,88,89,87,1.213,49.3,49.8,49.0,4.165,3.9,180,23,5.1,0.00012,0.00021,71.2,75.0,16,0,0,51.4,16.21,0.00,0.00
15min,AgWx,beryljct,423,12AUG2018:05:30:00,54.7,12.85,54.2,53.5,54.0,54.5,53.5,86,88,84,1.220,49.8,50.2,49.5,3.288,3.6,190,1.2,4.3,0.00014,0.00023,71.0,74.9,16,0,0,52.4,16.21,0.00,0.00
15min,AgWx,beryljct,423,12AUG2018:05:45:00,54.5,12.85,53.8,53.8,53.5,54.1,53.2,87,88,85,1.219,49.6,50.2,49.2,2.368,2.2,186,8.4,4.3,0.00009,0.00015,70.8,75.2,16,2,0,51.9,16.21,0.00,0.00
15min,AgWx,beryljct,423,12AUG2018:06:00:00,54.3,12.85,53.2,52.9,53.1,54.4,52.4,87,89,84,1.173,49.4,49.9,48.8,5.568,1.4,163,11,5.6,0.00011,0.00015,70.6,75.1,16,9,0,52.0,16.21,0.00,0.00
15min,AgWx,beryljct,423,12AUG2018:06:15:00,54.3,12.86,54.1,53.9,53.8,54.3,52.9,85,88,84,1.195,49.4,49.7,48.9,1.754,1.1,141,19,4.5,0.00024,0.00029,70.5,75.0,16,31,0,55.3,16.21,0.00,0.00
15min,AgWx,beryljct,423,12AUG2018:06:30:00,54.4,12.89,53.6,53.6,53.5,54.3,52.9,87,89,84,1.220,49.6,50.2,49.1,0,0.7,12,19,7.1,0.00042,0.00047,70.3,74.9,16,65,0,59.8,16.21,0.00,0.00
15min,AgWx,beryljct,423,12AUG2018:06:45:00,55.1,12.88,53.9,54.6,53.7,54.6,53.4,89,91,87,1.270,50.6,51.1,49.8,0.636,0.6,340,0.1,1.9,0.00060,0.00065,70.1,74.7,16,106,0,64.6,16.21,0.00,0.00
15min,AgWx,beryljct,423,12AUG2018:07:00:00,56.4,12.9,56.5,56.7,56.1,57.1,54.6,86,88,84,1.371,52.1,53.1,51.0,0.833,1.2,346,8.6,2.9,0.00084,0.00092,70.0,74.1,16,147,0,71.6,16.20,0.00,0.00
15min,AgWx,beryljct,423,12AUG2018:07:15:00,58.0,12.91,58.3,60.5,57.8,60.5,56.6,87,89,80,1.437,53.8,54.3,53.0,5.327,3.8,150,22,5.4,0.00110,0.00126,69.8,74.5,16,192,0,72.9,16.21,0.00,0.00
15min,AgWx,beryljct,423,12AUG2018:07:30:00,60.2,12.97,62.6,64.0,62.1,64.3,60.3,77,83,73,1.540,55.0,56.4,54.3,5.174,5.3,175,22,7.4,0.00154,0.00186,69.7,74.4,16,240,0,76.0,16.20,0.00,0.00
15min,AgWx,beryljct,423,12AUG2018:07:45:00,62.8,13.04,63.9,63.2,63.9,67.2,62.6,74,81,56,1.507,55.3,56.9,50.9,2.148,2.9,307,63,5.0,0.00184,0.00211,69.6,74.3,16,289,0,82.5,16.20,0.00,0.00
15min,AgWx,beryljct,423,12AUG2018:08:00:00,65.3,13.17,65.4,67.3,65.0,67.3,63.2,75,77,70,1.608,56.7,58.3,55.0,0.68,0.4,345,0.3,2.2,0.00209,0.00226,69.5,74.1,16,339,0,92.2,16.20,0.00,0.00
15min,AgWx,beryljct,423,12AUG2018:08:15:00,68.1,13.37,69.4,71.6,69.0,71.6,67.3,66,73,55,1.562,57.2,58.8,53.7,0.417,1.4,343,15,3.3,0.00254,0.00282,69.5,74.0,16,387,0,95.8,16.20,0.00,0.00
15min,AgWx,beryljct,423,12AUG2018:08:30:00,71.2,13.57,73.7,74.4,73.5,74.4,71.5,52,64,45,1.320,54.9,58.9,51.9,5.634,4.4,194,9.7,6.9,0.00326,0.00392,69.5,73.9,16,437,0,98.0,16.20,0.00,0.00
15min,AgWx,beryljct,423,12AUG2018:08:45:00,73.8,13.78,74.9,75.8,74.9,75.8,74.4,46,54,40,1.237,52.8,57.1,49.0,4.647,5.4,188,10,7.5,0.00380,0.00467,69.5,73.8,16,488,0,96.9,16.19,0.00,0.00
15min,AgWx,beryljct,423,12AUG2018:09:00:00,76.1,13.98,76.0,76.6,76.1,76.6,75.8,45,50,38,1.221,53.1,56.3,49.2,4.494,5.0,178,14,6.8,0.00414,0.00502,69.6,73.7,16,537,0,100.0,16.19,0.00,0.00
15min,AgWx,beryljct,423,12AUG2018:09:15:00,78.1,13.99,77.0,76.7,77.1,78.1,75.9,46,53,41,1.593,54.9,58.7,51.1,3.683,4.1,178,16,7.5,0.00437,0.00516,69.8,73.6,16,581,0,103.8,16.19,0.00,0.00
15min,AgWx,beryljct,423,12AUG2018:09:30:00,79.9,13.93,78.2,78.7,78.1,79.5,76.6,44,52,34,1.527,54.1,58.4,47.7,4.582,4.9,206,66,8.9,0.00480,0.00574,69.9,73.5,16,625,0,103.4,16.18,0.00,0.00
15min,AgWx,beryljct,423,12AUG2018:09:45:00,81.3,13.97,78.4,78.7,78.6,79.3,77.7,45,53,34,1.649,55.6,59.1,48.7,3.266,3.9,271,17,5.6,0.00498,0.00581,70.2,73.5,16,664,0,106.0,16.18,0.00,0.00
15min,AgWx,beryljct,423,12AUG2018:10:00:00,82.8,13.95,80.6,81.7,80.5,81.7,78.6,39,49,30,1.528,52.9,58.6,46.9,2.85,2.6,256,22,5.7,0.00524,0.00599,70.5,73.4,16,703,0,112.6,16.17,0.00,0.00
15min,AgWx,beryljct,423,12AUG2018:10:15:00,84.3,13.9,82.0,83.2,82.1,83.2,81.4,38,44,32,1.241,54.3,57.9,49.6,0.022,3.1,195,20,6.3,0.00562,0.00646,70.8,73.4,16,740,0,114.4,16.17,0.00,0.00
15min,AgWx,beryljct,423,12AUG2018:10:30:00,85.7,13.86,82.9,83.1,83.2,84.1,81.9,35,46,27,1.548,52.7,60.2,46.4,3.486,3.6,192,23,8.3,0.00598,0.00694,71.2,73.3,16,774,0,114.8,16.17,0.00,0.00
15min,AgWx,beryljct,423,12AUG2018:10:45:00,86.7,13.83,82.9,83.6,83.1,83.9,82.3,36,44,27,1.574,53.4,58.4,46.0,3.771,3.9,239,21,9.2,0.00624,0.00726,71.6,73.3,16,808,0,114.1,16.17,0.00,0.00
15min,AgWx,beryljct,423,12AUG2018:11:00:00,87.3,13.82,83.1,82.3,83.4,84.0,82.3,36,45,27,1.443,53.8,59.4,45.8,7.717,5.2,242,20,12.9,0.00659,0.00782,72.0,73.3,16,837,0,111.5,16.17,0.00,0.00
15min,AgWx,beryljct,423,12AUG2018:11:15:00,87.4,13.81,83.3,83.9,83.4,85.1,81.5,36,43,28,1.224,53.5,58.5,47.3,8.15,4.8,245,31,10.2,0.00671,0.00788,72.5,73.3,16,860,0,110.6,16.16,0.00,0.00
15min,AgWx,beryljct,423,12AUG2018:11:30:00,87.6,13.82,84.0,84.1,84.2,84.9,83.6,32,37,28,1.326,51.5,55.1,47.7,7.519,8.0,206,15,11.7,0.00729,0.00900,73.1,73.4,16,882,0,108.6,16.16,0.00,0.00
15min,AgWx,beryljct,423,12AUG2018:11:45:00,87.8,13.4,84.3,85.2,84.5,85.5,83.5,33,45,25,1.541,52.2,60.1,45.3,2.916,5.6,241,32,10.1,0.00716,0.00855,73.7,73.4,16,900,0,109.5,16.16,0.00,0.00
15min,AgWx,beryljct,423,12AUG2018:12:00:00,88.1,13.39,85.0,85.3,85.3,86.2,84.2,32,40,24,1.315,52.1,58.5,45.0,10.68,7.7,207,18,15.0,0.00752,0.00922,74.3,73.5,16,914,0,109.7,16.16,0.00,0.00
15min,AgWx,beryljct,423,12AUG2018:12:15:00,88.7,13.45,85.8,86.7,85.9,87.1,84.8,30,38,23,1.178,50.5,56.4,44.9,6.292,7.5,198,16,11.2,0.00763,0.00938,74.9,73.6,16,921,0,109.3,16.16,0.00,0.00
15min,AgWx,beryljct,423,12AUG2018:12:30:00,89.1,13.37,85.9,85.8,86.2,87.1,85.1,31,41,23,1.231,51.4,58.8,44.1,8.9,6.8,204,24,15.1,0.00758,0.00920,75.6,73.7,16,929,0,110.0,16.16,0.00,0.00
15min,AgWx,beryljct,423,12AUG2018:12:45:00,89.6,13.36,86.8,87.2,87.0,87.9,85.9,29,37,22,1.317,50.6,57.2,43.8,6.16,5.0,194,18,8.7,0.00743,0.00880,76.3,73.8,16,931,0,113.2,16.16,0.00,0.00
15min,AgWx,beryljct,423,12AUG2018:13:00:00,90.3,13.34,86.7,87.6,86.9,88.0,85.5,33,41,22,1.450,53.7,59.4,43.5,6.007,5.1,192,27,11.1,0.00741,0.00875,77.0,74.0,16,930,0,113.6,16.16,0.00,0.00
15min,AgWx,beryljct,423,12AUG2018:13:15:00,91.0,13.38,86.9,87.2,87.1,87.9,86.3,30,40,23,1.427,52.1,59.5,45.0,1.008,5.0,201,42,10.5,0.00738,0.00874,77.6,74.1,16,924,0,111.5,16.16,0.00,0.00
15min,AgWx,beryljct,423,12AUG2018:13:30:00,91.1,13.31,85.7,86.7,86.0,87.5,84.9,34,43,24,1.368,53.9,61.2,45.8,3.354,7.1,218,36,14.3,0.00746,0.00907,78.3,74.3,16,915,0,106.8,16.17,0.00,0.00
15min,AgWx,beryljct,423,12AUG2018:13:45:00,91.5,13.3,87.1,86.6,87.4,88.9,85.9,31,41,21,1.478,52.7,59.7,43.4,2.718,3.7,266,37,7.6,0.00705,0.00817,79.0,74.5,16,902,0,112.2,16.17,0.00,0.00
15min,AgWx,beryljct,423,12AUG2018:14:00:00,91.9,13.31,86.7,87.6,86.9,88.3,85.8,33,40,23,1.399,54.4,59.4,46.2,12.96,6.9,203,31,13.6,0.00730,0.00887,79.7,74.7,16,889,0,107.5,16.17,0.00,0.00
15min,AgWx,beryljct,423,12AUG2018:14:15:00,91.8,13.31,86.5,86.1,86.9,87.7,85.8,30,37,26,1.368,51.8,56.9,47.2,6.73,10.7,207,22,15.7,0.00767,0.00987,80.2,74.9,16,869,0,101.8,16.17,0.00,0.00
15min,AgWx,beryljct,423,12AUG2018:14:30:00,91.4,13.3,86.6,87.5,86.7,87.5,85.5,29,35,25,1.260,51.1,55.1,47.4,12.87,11.1,194,22,16.8,0.00756,0.00979,80.7,75.1,16,848,0,100.2,16.17,0.00,0.00
15min,AgWx,beryljct,423,12AUG2018:14:45:00,91.2,13.3,86.1,87.0,86.3,87.6,85.6,31,37,24,1.194,52.1,56.6,45.5,12.28,9.0,209,21,17.3,0.00708,0.00897,81.0,75.4,16,821,0,101.0,16.17,0.00,0.00
15min,AgWx,beryljct,423,12AUG2018:15:00:00,91.1,13.28,86.6,87.3,86.8,87.3,86.0,28,31,24,1.162,49.5,52.3,46.3,11.05,11.6,193,18,18.7,0.00730,0.00966,81.2,75.6,16,790,0,99.0,16.17,0.00,0.00
15min,AgWx,beryljct,423,12AUG2018:15:15:00,91.1,13.31,86.7,87.1,87.0,87.6,86.2,28,33,25,1.215,49.6,54.3,46.6,10.7,11.4,192,13,15.7,0.00691,0.00922,81.3,75.8,16,734,0,97.9,16.17,0.00,0.00
15min,AgWx,beryljct,423,12AUG2018:15:30:00,91.0,13.33,86.0,87.2,86.2,87.3,85.2,29,36,25,1.205,50.1,55.5,46.1,10.83,10.2,206,14,15.9,0.00649,0.00856,81.4,76.0,16,708,0,97.1,16.17,0.00,0.00
15min,AgWx,beryljct,423,12AUG2018:15:45:00,91.1,13.3,87.0,86.8,87.3,88.0,86.6,26,30,24,1.201,48.4,51.3,46.0,12.61,11.4,191,12,16.6,0.00665,0.00897,81.4,76.2,16,689,0,96.1,16.17,0.00,0.00
15min,AgWx,beryljct,423,12AUG2018:16:00:00,91.0,13.31,86.2,86.7,86.4,87.2,85.7,28,33,24,1.207,49.5,53.6,45.6,12.61,10.9,202,13,16.5,0.00622,0.00839,81.4,76.4,16,649,0,95.0,16.17,0.00,0.00
15min,AgWx,beryljct,423,12AUG2018:16:15:00,90.8,13.3,86.2,87.3,86.4,87.3,85.8,28,33,24,1.159,49.0,53.7,45.7,9.73,10.1,201,11,15.4,0.00575,0.00780,81.5,76.6,16,597,0,94.1,16.17,0.00,0.00
15min,AgWx,beryljct,423,12AUG2018:16:30:00,90.7,13.3,85.5,86.4,85.8,87.4,84.9,30,37,24,1.169,50.8,55.6,45.1,9.56,7.2,196,24,13.0,0.00501,0.00654,81.6,76.7,16,566,0,94.1,16.17,0.00,0.00
15min,AgWx,beryljct,423,12AUG2018:16:45:00,90.7,13.35,86.4,86.8,86.6,86.9,86.0,26,28,23,1.048,47.3,49.8,44.5,9.08,10.1,191,14,14.6,0.00528,0.00735,81.8,76.9,16,523,0,92.2,16.17,0.00,0.00
15min,AgWx,beryljct,423,12AUG2018:17:00:00,90.5,13.35,86.0,86.3,86.2,87.0,85.3,26,33,23,1.138,47.8,53.3,44.6,7.475,8.6,194,14,14.5,0.00466,0.00646,82.1,77.0,16,475,0,91.3,16.17,0.00,0.00
15min,AgWx,beryljct,423,12AUG2018:17:15:00,89.9,13.34,85.0,84.3,85.3,86.2,84.3,27,31,24,1.124,47.9,50.9,44.1,10.74,8.7,209,13,14.8,0.00425,0.00599,82.3,77.1,16,423,0,89.4,16.17,0.00,0.00
15min,AgWx,beryljct,423,12AUG2018:17:30:00,89.2,13.3,84.4,84.3,84.6,85.3,83.6,28,31,26,1.062,48.0,51.1,45.4,10.39,8.2,210,15,13.4,0.00376,0.00537,82.5,77.3,16,373,0,87.6,16.17,0.00,0.00
15min,AgWx,beryljct,423,12AUG2018:17:45:00,88.4,13.34,84.0,84.4,84.2,85.2,83.2,28,33,25,1.085,47.8,51.0,45.7,11.05,8.2,206,11,12.7,0.00342,0.00499,82.7,77.4,16,326,0,85.6,16.17,0.00,0.00
15min,AgWx,beryljct,423,12AUG2018:18:00:00,87.6,13.33,83.7,84.9,83.8,84.9,82.3,28,34,24,0.999,47.2,51.0,44.5,10.74,8.3,205,9.7,15.6,0.00295,0.00452,82.8,77.6,16,257,0,83.9,16.17,0.00,0.00
15min,AgWx,beryljct,423,12AUG2018:18:15:00,86.9,13.24,83.4,83.2,83.7,84.8,83.1,27,29,26,1.066,46.5,47.8,45.0,7.936,9.0,206,8.7,12.3,0.00283,0.00451,82.9,77.7,16,216,0,83.0,16.17,0.00,0.00
15min,AgWx,beryljct,423,12AUG2018:18:30:00,85.7,13.19,82.0,81.8,82.2,83.2,81.4,28,31,26,1.054,46.0,47.7,44.3,10.3,8.8,219,11,12.2,0.00196,0.00350,83.0,77.9,16,109,0,81.2,16.17,0.00,0.00
15min,AgWx,beryljct,423,12AUG2018:18:45:00,84.3,13.19,81.1,80.3,81.3,81.8,80.2,29,31,28,1.058,46.4,47.6,45.6,8.05,7.7,214,7.5,10.1,0.00118,0.00162,83.0,78.0,16,85,0,79.8,16.17,0.00,0.00
15min,AgWx,beryljct,423,12AUG2018:19:00:00,82.6,13.18,79.1,78.7,79.4,80.7,78.3,31,33,29,1.073,46.6,47.4,45.3,6.774,6.6,214,7.0,9.1,0.00083,0.00119,82.9,78.1,16,26,0,77.4,16.18,0.00,0.00
15min,AgWx,beryljct,423,12AUG2018:19:15:00,81.0,13.16,78.5,78.4,78.6,79.1,78.1,32,34,31,1.084,46.6,47.3,45.9,6.116,6.8,215,5.2,8.4,0.00079,0.00113,82.8,78.2,16,16,0,76.2,16.18,0.00,0.00
15min,AgWx,beryljct,423,12AUG2018:19:30:00,79.4,13.14,76.2,75.4,76.6,78.4,75.4,36,39,33,1.177,48.0,48.9,46.7,5.02,5.7,220,2.8,6.8,0.00057,0.00084,82.6,78.3,16,7,0,74.3,16.18,0.00,0.00
15min,AgWx,beryljct,423,12AUG2018:19:45:00,77.6,13.14,74.6,75.0,74.7,75.3,74.1,40,41,38,1.147,48.8,49.3,47.6,4.713,5.2,213,5.8,6.1,0.00045,0.00067,82.4,78.4,16,1,0,72.0,16.18,0.00,0.00
15min,AgWx,beryljct,423,12AUG2018:20:00:00,76.1,13.13,74.2,74.1,74.3,75.0,73.7,41,42,39,1.173,49.0,49.6,48.1,4.187,5.1,207,3.5,6.5,0.00042,0.00063,82.1,78.5,16,0,0,71.4,16.19,0.00,0.00
15min,AgWx,beryljct,423,12AUG2018:20:15:00,74.7,13.11,72.6,73.3,72.7,74.1,71.4,44,49,41,1.145,49.7,51.2,48.2,4.954,4.6,199,4.0,5.3,0.00032,0.00049,81.9,78.6,16,0,0,70.0,16.19,0.00,0.00
15min,AgWx,beryljct,423,12AUG2018:20:30:00,73.6,13.12,72.5,69.8,72.9,74.2,69.8,44,55,39,1.364,49.6,52.9,47.7,8.72,4.8,223,24,8.7,0.00034,0.00052,81.5,78.6,16,0,0,70.5,16.19,0.00,0.00
15min,AgWx,beryljct,423,12AUG2018:20:45:00,72.7,13.11,72.2,73.2,71.8,73.4,69.0,44,56,37,1.053,48.5,52.9,45.8,7.541,5.7,296,7.5,9.2,0.00042,0.00062,81.2,78.7,16,0,0,69.7,16.19,0.00,0.00
15min,AgWx,beryljct,423,12AUG2018:21:00:00,72.3,13.1,71.2,69.9,71.5,73.2,69.8,42,47,38,1.150,47.2,49.4,45.9,0,2.9,314,26,7.3,0.00012,0.00023,80.9,78.7,16,0,0,69.0,16.19,0.00,0.00
15min,AgWx,beryljct,423,12AUG2018:21:15:00,71.6,13.08,71.3,70.2,71.3,72.4,69.9,42,47,38,1.186,46.9,49.1,45.0,1.052,1.5,275,31,4.6,-0.00013,-0.00016,80.6,78.7,16,0,0,67.7,16.19,0.00,0.00
15min,AgWx,beryljct,423,12AUG2018:21:30:00,70.9,13.08,70.9,73.4,70.4,73.4,68.9,44,50,35,0.969,47.5,51.0,43.8,3.661,1.1,246,11,4.4,-0.00021,-0.00028,80.3,78.7,16,0,0,66.3,16.19,0.00,0.00
15min,AgWx,beryljct,423,12AUG2018:21:45:00,70.3,13.08,70.1,70.6,70.3,73.9,67.6,45,54,34,1.092,47.6,50.6,43.8,0,1.3,309,34,3.6,-0.00015,-0.00019,80.0,78.7,16,0,0,66.9,16.19,0.00,0.00
15min,AgWx,beryljct,423,12AUG2018:22:00:00,69.6,13.07,68.8,68.6,68.9,70.5,67.6,46,50,43,1.106,47.1,48.6,46.1,0,0.5,261,35,1.8,-0.00032,-0.00047,79.7,78.7,16,0,0,64.9,16.19,0.00,0.00
15min,AgWx,beryljct,423,12AUG2018:22:15:00,68.8,13.05,68.1,65.7,68.4,70.5,65.6,48,58,42,1.190,47.9,50.6,46.2,1.359,1.8,103,26,3.7,-0.00010,-0.00010,79.4,78.7,16,0,0,64.8,16.19,0.00,0.00
15min,AgWx,beryljct,423,12AUG2018:22:30:00,67.9,13.05,68.2,66.7,68.0,70.4,65.7,48,57,41,1.102,47.3,50.3,45.3,3.924,1.8,128,27,5.8,-0.00008,-0.00008,79.1,78.6,16,0,0,64.5,16.19,0.00,0.00
15min,AgWx,beryljct,423,12AUG2018:22:45:00,67.0,13.05,63.8,62.3,64.2,66.7,62.3,55,64,47,1.205,47.9,50.0,45.1,2.565,2.4,182,2.2,4.5,-0.00003,-0.00001,78.8,78.6,16,0,0,62.2,16.20,0.00,0.00
15min,AgWx,beryljct,423,12AUG2018:23:00:00,66.1,13.03,65.2,65.7,64.7,67.3,60.7,53,69,45,1.066,46.9,50.7,44.1,3.179,3.9,196,9.0,5.0,0.00014,0.00023,78.6,78.5,16,0,0,62.1,16.20,0.00,0.00
15min,AgWx,beryljct,423,12AUG2018:23:15:00,65.5,13.04,64.7,65.7,64.6,66.6,61.8,52,63,46,1.015,46.3,49.5,44.3,2.784,2.9,195,8.3,3.8,0.00004,0.00009,78.3,78.5,16,0,0,62.0,16.20,0.00,0.00
15min,AgWx,beryljct,423,12AUG2018:23:30:00,64.8,13.02,61.0,60.0,61.6,65.6,59.2,62,71,48,1.154,48.5,50.1,45.2,5.196,3.9,161,14,5.9,0.00006,0.00012,78.0,78.4,16,0,0,60.1,16.20,0.00,0.00
15min,AgWx,beryljct,423,12AUG2018:23:45:00,63.8,13.02,61.2,60.8,61.0,62.5,59.6,64,70,58,1.132,48.6,49.8,47.4,3.244,4.2,157,9.5,5.8,0.00007,0.00013,77.7,78.3,16,0,0,59.4,16.20,0.00,0.00
15min,AgWx,bigpiney,439,12AUG2018:00:00:00,58.1,12.8,57.2,56.4,55.1,56.6,53.5,44,47,39,0.608,33.5,34.4,31.7,1.25,4.0,291,86,7.7,0.00018,0.00027,56.9,54.8,43,0,0,0.0,.,0.00,0.00
15min,AgWx,bigpiney,439,12AUG2018:00:15:00,57.5,12.79,50.2,50.4,52.4,56.6,50.2,50,56,39,0.695,34.3,35.3,31.8,0,1.8,30,19,3.8,-0.00006,-0.00005,56.9,54.9,43,0,0,0.0,.,0.00,0.00
15min,AgWx,bigpiney,439,12AUG2018:00:30:00,56.6,12.78,53.9,53.5,51.9,53.6,49.9,53,58,49,0.693,35.3,35.6,34.9,3.793,2.7,299,9.6,3.8,0.00001,0.00005,56.8,54.9,43,0,0,0.0,.,0.00,0.00
15min,AgWx,bigpiney,439,12AUG2018:00:45:00,55.9,12.76,56.9,54.4,54.1,55.7,52.7,47,50,43,0.648,34.1,35.1,33.4,3.529,4.0,271,12,4.6,0.00015,0.00024,56.7,54.9,43,0,0,0.0,.,0.00,0.00
15min,AgWx,bigpiney,439,12AUG2018:01:00:00,55.4,12.76,49.7,50.6,52.5,55.4,49.7,51,59,43,0.697,34.6,35.9,33.2,4.713,4.5,254,11,6.1,0.00016,0.00025,56.7,54.9,43,0,0,0.0,.,0.00,0.00
15min,AgWx,bigpiney,439,12AUG2018:01:15:00,54.6,12.75,50.5,49.8,49.5,50.4,48.6,57,60,54,0.668,35.0,36.0,34.2,4.626,4.7,223,7.0,5.9,0.00012,0.00018,56.7,54.9,43,0,0,0.0,.,0.00,0.00
15min,AgWx,bigpiney,439,12AUG2018:01:30:00,53.7,12.75,44.2,45.3,45.9,50.0,44.5,65,69,54,0.677,34.8,35.3,34.0,4.911,6.1,200,8.2,7.5,0.00012,0.00016,56.6,54.9,43,0,0,0.0,.,0.00,0.00
15min,AgWx,bigpiney,439,12AUG2018:01:45:00,52.6,12.73,47.6,46.6,44.7,46.6,43.0,67,73,60,0.649,34.3,35.0,33.3,3.047,3.4,226,17,5.0,-0.00001,0.00001,56.5,54.9,43,0,0,0.0,.,0.00,0.00
15min,AgWx,bigpiney,439,12AUG2018:02:00:00,51.6,12.72,49.4,51.9,49.9,52.1,46.6,51,60,45,0.597,32.2,33.5,30.9,4.121,3.4,222,12,5.1,0.00008,0.00013,56.4,54.9,43,0,0,0.0,.,0.00,0.00
15min,AgWx,bigpiney,439,12AUG2018:02:15:00,51.3,12.71,49.7,49.1,52.3,56.3,48.5,45,55,36,0.628,31.5,33.2,29.5,4.998,3.4,205,15,6.1,0.00011,0.00019,56.4,54.9,43,0,0,0.0,.,0.00,0.00
15min,AgWx,bigpiney,439,12AUG2018:02:30:00,50.9,12.7,45.6,44.8,45.8,49.6,44.3,63,67,52,0.658,33.8,34.1,32.4,3.814,4.8,183,9.8,6.2,0.00008,0.00013,56.3,54.9,43,0,0,0.0,.,0.00,0.00
15min,AgWx,bigpiney,439,12AUG2018:02:45:00,50.6,12.68,58.8,56.7,52.0,56.8,45.0,44,65,33,0.518,30.3,33.9,27.9,3.661,3.7,242,32,5.8,0.00014,0.00022,56.2,54.9,43,0,0,0.0,.,0.00,0.00
15min,AgWx,bigpiney,439,12AUG2018:03:00:00,51.1,12.68,48.1,47.1,51.8,60.0,45.2,46,62,27,0.621,30.5,33.3,25.5,1.907,2.5,56,66,4.5,0.00004,0.00009,56.2,54.9,43,0,0,0.0,.,0.00,0.00
15min,AgWx,bigpiney,439,12AUG2018:03:15:00,51.1,12.67,46.2,47.5,46.5,48.1,45.0,58,64,54,0.639,32.6,33.8,32.0,2.061,3.3,108,41,4.6,0.00003,0.00006,56.1,54.8,43,0,0,0.0,.,0.00,0.00
15min,AgWx,bigpiney,439,12AUG2018:03:30:00,50.7,12.66,50.1,49.3,47.6,50.0,44.4,56,66,49,0.608,32.6,33.9,31.6,2.411,1.3,175,68,3.0,-0.00013,-0.00016,56.0,54.8,43,0,0,0.0,.,0.00,0.00
15min,AgWx,bigpiney,439,12AUG2018:03:45:00,50.4,12.65,48.3,47.2,47.1,49.4,46.0,56,59,51,0.608,32.4,32.7,31.9,3.464,3.6,302,12,4.1,0.00006,0.00010,55.9,54.8,43,0,0,0.0,.,0.00,0.00
15min,AgWx,bigpiney,439,12AUG2018:04:00:00,50.0,12.64,50.3,48.8,48.5,49.3,47.3,52,55,49,0.588,31.5,31.9,31.1,3.793,3.0,308,16,3.8,0.00004,0.00008,55.9,54.8,43,0,0,0.0,.,0.00,0.00
15min,AgWx,bigpiney,439,12AUG2018:04:15:00,49.9,12.63,47.9,47.8,50.1,52.1,47.8,47,53,42,0.603,30.6,31.7,29.9,1.425,2.4,276,28,3.8,0.00001,0.00004,55.8,54.8,43,0,0,0.0,.,0.00,0.00
15min,AgWx,bigpiney,439,12AUG2018:04:30:00,49.7,12.63,50.1,49.8,48.6,49.8,47.7,51,54,48,0.589,31.3,31.9,30.7,3.683,1.8,233,23,4.4,-0.00006,-0.00006,55.7,54.8,43,0,0,0.0,.,0.00,0.00
15min,AgWx,bigpiney,439,12AUG2018:04:45:00,49.4,12.61,47.4,45.9,46.6,49.8,45.3,58,63,48,0.645,32.7,33.4,31.1,4.669,5.0,238,8.7,5.8,0.00012,0.00017,55.6,54.7,43,0,0,0.0,.,0.00,0.00
15min,AgWx,bigpiney,439,12AUG2018:05:00:00,49.0,12.6,45.8,47.7,49.0,51.3,46.1,51,61,44,0.636,31.7,33.4,30.4,4.998,4.4,254,11,5.2,0.00014,0.00021,55.5,54.8,43,0,0,0.0,.,0.00,0.00
15min,AgWx,bigpiney,439,12AUG2018:05:15:00,48.7,12.59,43.9,44.6,45.4,47.4,44.6,62,64,57,0.628,33.0,33.8,32.4,4.757,5.4,232,9.0,6.7,0.00011,0.00016,55.5,54.7,43,1,0,0.0,.,0.00,0.00
15min,AgWx,bigpiney,439,12AUG2018:05:30:00,48.5,12.6,46.4,46.3,45.2,46.4,44.2,61,64,57,0.615,32.6,33.1,32.1,5.393,5.4,238,5.5,6.8,0.00012,0.00017,55.4,54.7,43,4,0,0.0,.,0.00,0.00
15min,AgWx,bigpiney,439,12AUG2018:05:45:00,48.5,12.6,47.7,47.3,47.4,48.1,46.3,56,58,55,0.641,32.5,33.3,32.2,3.617,4.5,243,7.8,5.8,-0.00003,0.00025,55.3,54.7,43,17,0,0.0,.,0.00,0.00
15min,AgWx,bigpiney,439,12AUG2018:06:00:00,48.8,12.66,48.0,47.8,47.5,48.2,46.8,60,64,56,0.679,34.2,35.4,33.1,2.696,3.2,259,16,5.0,0.00000,0.00020,55.2,54.6,43,52,0,0.0,.,0.00,0.00
15min,AgWx,bigpiney,439,12AUG2018:06:15:00,49.7,12.7,50.4,50.1,49.0,50.1,47.8,61,65,59,0.800,36.1,38.9,34.5,1.622,2.7,234,15,4.0,0.00015,0.00032,55.2,54.6,43,88,0,0.0,.,0.00,0.00
15min,AgWx,bigpiney,439,12AUG2018:06:30:00,50.9,12.71,51.2,51.1,51.7,53.1,50.1,62,72,47,0.888,39.1,42.2,33.5,2.389,2.1,189,16,4.6,0.00031,0.00045,55.1,54.6,43,97,0,0.0,.,0.00,0.00
15min,AgWx,bigpiney,439,12AUG2018:06:45:00,52.3,12.75,52.9,52.3,51.7,52.3,51.1,69,72,68,0.908,42.0,42.6,41.6,2.039,3.4,206,10,5.9,0.00055,0.00075,55.0,54.6,43,112,0,0.0,.,0.00,0.00
15min,AgWx,bigpiney,439,12AUG2018:07:00:00,53.4,13.03,55.8,55.1,52.9,55.1,52.3,69,72,63,0.932,43.0,44.2,41.9,3.113,1.7,266,73,3.4,0.00070,0.00084,54.9,54.5,43,165,0,0.0,.,0.00,0.00
15min,AgWx,bigpiney,439,12AUG2018:07:15:00,55.2,13.38,60.6,59.0,57.3,59.0,55.1,56,63,47,0.817,41.6,43.0,39.0,2.258,1.3,63,33,3.3,0.00156,0.00177,54.9,54.5,43,324,0,0.0,.,0.00,0.00
15min,AgWx,bigpiney,439,12AUG2018:07:30:00,57.8,13.25,60.1,59.8,59.7,60.0,59.2,47,55,40,0.699,39.6,43.4,35.4,5.064,2.7,24,15,5.1,0.00146,0.00181,54.8,54.5,43,249,0,0.0,.,0.00,0.00
15min,AgWx,bigpiney,439,12AUG2018:07:45:00,59.6,13.21,60.7,60.5,60.5,60.9,59.8,44,48,39,0.842,38.4,40.9,34.9,1.337,5.6,25,12,8.9,0.00154,0.00219,54.7,54.4,43,153,0,0.0,.,0.00,0.00
15min,AgWx,bigpiney,439,12AUG2018:08:00:00,60.7,13.2,58.3,58.5,59.3,60.9,58.4,52,59,43,0.931,41.5,44.5,37.9,5.371,4.5,154,31,8.2,0.00129,0.00175,54.7,54.4,43,134,0,0.0,.,0.00,0.00